owner,sensor,date,latitude,longitude,vertical_datum,sea_water_practical_salinity,qcFlag 
DISL,ioos:station:DISL:DISL:1,2011-08-01T00:00:00Z,30.2513,-88.0778,6.396,19.57,1111122 
DISL,ioos:station:DISL:DISL:1,2011-08-01T00:30:00Z,30.2513,-88.0778,6.353,19.73,1111122 
DISL,ioos:station:DISL:DISL:1,2011-08-01T01:00:00Z,30.2513,-88.0778,6.312,20.24,1111122 
DISL,ioos:station:DISL:DISL:1,2011-08-01T01:30:00Z,30.2513,-88.0778,6.196,19.8,1111122 
DISL,ioos:station:DISL:DISL:1,2011-08-01T02:00:00Z,30.2513,-88.0778,6.116,20.15,1111122 
DISL,ioos:station:DISL:DISL:1,2011-08-01T02:30:00Z,30.2513,-88.0778,5.999,19.74,1111122 
DISL,ioos:station:DISL:DISL:1,2011-08-01T03:00:00Z,30.2513,-88.0778,6.047,20.23,1111122 
DISL,ioos:station:DISL:DISL:1,2011-08-01T03:30:00Z,30.2513,-88.0778,5.95,19.2,1111122 
DISL,ioos:station:DISL:DISL:1,2011-08-01T04:00:00Z,30.2513,-88.0778,6.073,18.5,1111122 
DISL,ioos:station:DISL:DISL:1,2011-08-01T04:30:00Z,30.2513,-88.0778,6.131,18.01,1111122 
DISL,ioos:station:DISL:DISL:1,2011-08-01T05:00:00Z,30.2513,-88.0778,6.14,17.9,1111122 
DISL,ioos:station:DISL:DISL:1,2011-08-01T05:30:00Z,30.2513,-88.0778,6.272,18.8,1111122 
DISL,ioos:station:DISL:DISL:1,2011-08-01T06:00:00Z,30.2513,-88.0778,6.244,19.97,1111122 
DISL,ioos:station:DISL:DISL:1,2011-08-01T06:30:00Z,30.2513,-88.0778,6.247,21.8,1111122 
DISL,ioos:station:DISL:DISL:1,2011-08-01T07:00:00Z,30.2513,-88.0778,6.314,20.5,1111122 
DISL,ioos:station:DISL:DISL:1,2011-08-01T07:30:00Z,30.2513,-88.0778,6.344,19.13,1111122 
DISL,ioos:station:DISL:DISL:1,2011-08-01T08:00:00Z,30.2513,-88.0778,6.318,19.79,1111122 
DISL,ioos:station:DISL:DISL:1,2011-08-01T08:30:00Z,30.2513,-88.0778,6.4,19.85,1111122 
DISL,ioos:station:DISL:DISL:1,2011-08-01T09:00:00Z,30.2513,-88.0778,6.429,19.78,1111122 
DISL,ioos:station:DISL:DISL:1,2011-08-01T09:30:00Z,30.2513,-88.0778,6.512,19.71,1111122 
DISL,ioos:station:DISL:DISL:1,2011-08-01T10:00:00Z,30.2513,-88.0778,6.572,19.94,1111122 
DISL,ioos:station:DISL:DISL:1,2011-08-01T10:30:00Z,30.2513,-88.0778,6.641,19.92,1111122 
DISL,ioos:station:DISL:DISL:1,2011-08-01T11:00:00Z,30.2513,-88.0778,6.729,19.53,1111122 
DISL,ioos:station:DISL:DISL:1,2011-08-01T11:30:00Z,30.2513,-88.0778,6.772,22.79,1111122 
DISL,ioos:station:DISL:DISL:1,2011-08-01T12:00:00Z,30.2513,-88.0778,6.825,24.29,1111122 
DISL,ioos:station:DISL:DISL:1,2011-08-01T12:30:00Z,30.2513,-88.0778,6.906,24.73,1111122 
DISL,ioos:station:DISL:DISL:1,2011-08-01T13:00:00Z,30.2513,-88.0778,6.967,25.18,1111122 
DISL,ioos:station:DISL:DISL:1,2011-08-01T13:30:00Z,30.2513,-88.0778,7.11,23.23,1111122 
DISL,ioos:station:DISL:DISL:1,2011-08-01T14:00:00Z,30.2513,-88.0778,7.11,22.76,1111122 
DISL,ioos:station:DISL:DISL:1,2011-08-01T14:30:00Z,30.2513,-88.0778,7.16,22.83,1111122 
DISL,ioos:station:DISL:DISL:1,2011-08-01T15:00:00Z,30.2513,-88.0778,7.21,23.46,1111122 
DISL,ioos:station:DISL:DISL:1,2011-08-01T15:30:00Z,30.2513,-88.0778,7.19,23.5,1111122 
DISL,ioos:station:DISL:DISL:1,2011-08-01T16:00:00Z,30.2513,-88.0778,7.25,21.59,1111122 
DISL,ioos:station:DISL:DISL:1,2011-08-01T16:30:00Z,30.2513,-88.0778,7.35,20.68,1111122 
DISL,ioos:station:DISL:DISL:1,2011-08-01T17:00:00Z,30.2513,-88.0778,7.34,20.4,1111122 
DISL,ioos:station:DISL:DISL:1,2011-08-01T17:30:00Z,30.2513,-88.0778,7.36,20.34,1111122 
DISL,ioos:station:DISL:DISL:1,2011-08-01T18:00:00Z,30.2513,-88.0778,7.27,20.23,1111122 
DISL,ioos:station:DISL:DISL:1,2011-08-01T18:30:00Z,30.2513,-88.0778,7.25,19.88,1111122 
DISL,ioos:station:DISL:DISL:1,2011-08-01T19:00:00Z,30.2513,-88.0778,7.22,19.89,1111122 
DISL,ioos:station:DISL:DISL:1,2011-08-01T19:30:00Z,30.2513,-88.0778,7.13,19.9,1111122 
DISL,ioos:station:DISL:DISL:1,2011-08-01T20:00:00Z,30.2513,-88.0778,6.96,19.91,1111122 
DISL,ioos:station:DISL:DISL:1,2011-08-01T20:30:00Z,30.2513,-88.0778,6.977,19.88,1111122 
DISL,ioos:station:DISL:DISL:1,2011-08-01T21:00:00Z,30.2513,-88.0778,6.928,18.63,1111122 
DISL,ioos:station:DISL:DISL:1,2011-08-01T21:30:00Z,30.2513,-88.0778,6.728,19.83,1111122 
DISL,ioos:station:DISL:DISL:1,2011-08-01T22:00:00Z,30.2513,-88.0778,6.683,19.83,1111122 
DISL,ioos:station:DISL:DISL:1,2011-08-01T22:30:00Z,30.2513,-88.0778,6.843,19.85,1111122 
DISL,ioos:station:DISL:DISL:1,2011-08-01T23:00:00Z,30.2513,-88.0778,6.485,19.46,1111122 
DISL,ioos:station:DISL:DISL:1,2011-08-01T23:30:00Z,30.2513,-88.0778,6.497,19.94,1111122 
DISL,ioos:station:DISL:DISL:1,2011-08-02T00:00:00Z,30.2513,-88.0778,6.501,20.12,1111122 
DISL,ioos:station:DISL:DISL:1,2011-08-02T00:30:00Z,30.2513,-88.0778,6.435,20.4,1111122 
DISL,ioos:station:DISL:DISL:1,2011-08-02T01:00:00Z,30.2513,-88.0778,6.285,20.59,1111122 
DISL,ioos:station:DISL:DISL:1,2011-08-02T01:30:00Z,30.2513,-88.0778,6.275,20.87,1111122 
DISL,ioos:station:DISL:DISL:1,2011-08-02T02:00:00Z,30.2513,-88.0778,6.298,20.94,1111122 
DISL,ioos:station:DISL:DISL:1,2011-08-02T02:30:00Z,30.2513,-88.0778,6.313,21.35,1111122 
DISL,ioos:station:DISL:DISL:1,2011-08-02T03:00:00Z,30.2513,-88.0778,6.326,20.31,1111122 
DISL,ioos:station:DISL:DISL:1,2011-08-02T03:30:00Z,30.2513,-88.0778,6.207,20.06,1111122 
DISL,ioos:station:DISL:DISL:1,2011-08-02T04:00:00Z,30.2513,-88.0778,6.169,20.32,1111122 
DISL,ioos:station:DISL:DISL:1,2011-08-02T04:30:00Z,30.2513,-88.0778,6.238,18.03,1111122 
DISL,ioos:station:DISL:DISL:1,2011-08-02T05:00:00Z,30.2513,-88.0778,6.232,18.79,1111122 
DISL,ioos:station:DISL:DISL:1,2011-08-02T05:30:00Z,30.2513,-88.0778,6.264,20.06,1111122 
DISL,ioos:station:DISL:DISL:1,2011-08-02T06:00:00Z,30.2513,-88.0778,6.254,20.62,1111122 
DISL,ioos:station:DISL:DISL:1,2011-08-02T06:30:00Z,30.2513,-88.0778,6.375,21.31,1111122 
DISL,ioos:station:DISL:DISL:1,2011-08-02T07:00:00Z,30.2513,-88.0778,6.357,22.09,1111122 
DISL,ioos:station:DISL:DISL:1,2011-08-02T07:30:00Z,30.2513,-88.0778,6.359,22.23,1111122 
DISL,ioos:station:DISL:DISL:1,2011-08-02T08:00:00Z,30.2513,-88.0778,6.378,21.29,1111122 
DISL,ioos:station:DISL:DISL:1,2011-08-02T08:30:00Z,30.2513,-88.0778,6.431,20.23,1111122 
DISL,ioos:station:DISL:DISL:1,2011-08-02T09:00:00Z,30.2513,-88.0778,6.436,20.39,1111122 
DISL,ioos:station:DISL:DISL:1,2011-08-02T09:30:00Z,30.2513,-88.0778,6.501,20.49,1111122 
DISL,ioos:station:DISL:DISL:1,2011-08-02T10:00:00Z,30.2513,-88.0778,6.484,20.36,1111122 
DISL,ioos:station:DISL:DISL:1,2011-08-02T10:30:00Z,30.2513,-88.0778,6.495,20.25,1111122 
DISL,ioos:station:DISL:DISL:1,2011-08-02T11:00:00Z,30.2513,-88.0778,6.5,20.16,1111122 
DISL,ioos:station:DISL:DISL:1,2011-08-02T11:30:00Z,30.2513,-88.0778,6.546,20.14,1111122 
DISL,ioos:station:DISL:DISL:1,2011-08-02T12:00:00Z,30.2513,-88.0778,6.532,20.13,1111122 
DISL,ioos:station:DISL:DISL:1,2011-08-02T12:30:00Z,30.2513,-88.0778,6.555,18.16,1111122 
DISL,ioos:station:DISL:DISL:1,2011-08-02T13:00:00Z,30.2513,-88.0778,6.664,17.87,1111122 
DISL,ioos:station:DISL:DISL:1,2011-08-02T13:30:00Z,30.2513,-88.0778,6.692,19.55,1111122 
DISL,ioos:station:DISL:DISL:1,2011-08-02T14:00:00Z,30.2513,-88.0778,6.697,20.05,1111122 
DISL,ioos:station:DISL:DISL:1,2011-08-02T14:30:00Z,30.2513,-88.0778,6.812,21.32,1111122 
DISL,ioos:station:DISL:DISL:1,2011-08-02T15:00:00Z,30.2513,-88.0778,6.841,21.4,1111122 
DISL,ioos:station:DISL:DISL:1,2011-08-02T15:30:00Z,30.2513,-88.0778,6.814,23.78,1111122 
DISL,ioos:station:DISL:DISL:1,2011-08-02T16:00:00Z,30.2513,-88.0778,6.88,24.58,1111122 
DISL,ioos:station:DISL:DISL:1,2011-08-02T16:30:00Z,30.2513,-88.0778,6.917,24.49,1111122 
DISL,ioos:station:DISL:DISL:1,2011-08-02T17:00:00Z,30.2513,-88.0778,6.919,22.91,1111122 
DISL,ioos:station:DISL:DISL:1,2011-08-02T17:30:00Z,30.2513,-88.0778,6.871,20.95,1111122 
DISL,ioos:station:DISL:DISL:1,2011-08-02T18:00:00Z,30.2513,-88.0778,6.937,20.15,1111122 
DISL,ioos:station:DISL:DISL:1,2011-08-02T18:30:00Z,30.2513,-88.0778,6.985,20.14,1111122 
DISL,ioos:station:DISL:DISL:1,2011-08-02T19:00:00Z,30.2513,-88.0778,6.983,20.18,1111122 
DISL,ioos:station:DISL:DISL:1,2011-08-02T19:30:00Z,30.2513,-88.0778,7.0,20.18,1111122 
DISL,ioos:station:DISL:DISL:1,2011-08-02T20:00:00Z,30.2513,-88.0778,6.927,20.06,1111122 
DISL,ioos:station:DISL:DISL:1,2011-08-02T20:30:00Z,30.2513,-88.0778,6.941,20.03,1111122 
DISL,ioos:station:DISL:DISL:1,2011-08-02T21:00:00Z,30.2513,-88.0778,6.922,20.12,1111122 
DISL,ioos:station:DISL:DISL:1,2011-08-02T21:30:00Z,30.2513,-88.0778,6.88,20.13,1111122 
DISL,ioos:station:DISL:DISL:1,2011-08-02T22:00:00Z,30.2513,-88.0778,6.698,20.13,1111122 
DISL,ioos:station:DISL:DISL:1,2011-08-02T22:30:00Z,30.2513,-88.0778,6.632,20.05,1111122 
DISL,ioos:station:DISL:DISL:1,2011-08-02T23:00:00Z,30.2513,-88.0778,6.602,20.11,1111122 
DISL,ioos:station:DISL:DISL:1,2011-08-02T23:30:00Z,30.2513,-88.0778,6.545,20.11,1111122 
DISL,ioos:station:DISL:DISL:1,2011-08-03T00:00:00Z,30.2513,-88.0778,6.596,20.11,1111122 
DISL,ioos:station:DISL:DISL:1,2011-08-03T00:30:00Z,30.2513,-88.0778,6.519,20.49,1111122 
DISL,ioos:station:DISL:DISL:1,2011-08-03T01:00:00Z,30.2513,-88.0778,6.484,20.27,1111122 
DISL,ioos:station:DISL:DISL:1,2011-08-03T01:30:00Z,30.2513,-88.0778,6.502,20.84,1111122 
DISL,ioos:station:DISL:DISL:1,2011-08-03T02:00:00Z,30.2513,-88.0778,6.433,21.2,1111122 
DISL,ioos:station:DISL:DISL:1,2011-08-03T02:30:00Z,30.2513,-88.0778,6.523,21.68,1111122 
DISL,ioos:station:DISL:DISL:1,2011-08-03T03:00:00Z,30.2513,-88.0778,6.567,21.33,1111122 
DISL,ioos:station:DISL:DISL:1,2011-08-03T03:30:00Z,30.2513,-88.0778,6.612,21.72,1111122 
DISL,ioos:station:DISL:DISL:1,2011-08-03T04:00:00Z,30.2513,-88.0778,6.488,22.64,1111122 
DISL,ioos:station:DISL:DISL:1,2011-08-03T04:30:00Z,30.2513,-88.0778,6.47,23.2,1111122 
DISL,ioos:station:DISL:DISL:1,2011-08-03T05:00:00Z,30.2513,-88.0778,6.558,23.51,1111122 
DISL,ioos:station:DISL:DISL:1,2011-08-03T05:30:00Z,30.2513,-88.0778,6.545,22.09,1111122 
DISL,ioos:station:DISL:DISL:1,2011-08-03T06:00:00Z,30.2513,-88.0778,6.582,23.31,1111122 
DISL,ioos:station:DISL:DISL:1,2011-08-03T06:30:00Z,30.2513,-88.0778,6.558,22.9,1111122 
DISL,ioos:station:DISL:DISL:1,2011-08-03T07:00:00Z,30.2513,-88.0778,6.613,21.42,1111122 
DISL,ioos:station:DISL:DISL:1,2011-08-03T07:30:00Z,30.2513,-88.0778,6.599,22.46,1111122 
DISL,ioos:station:DISL:DISL:1,2011-08-03T08:00:00Z,30.2513,-88.0778,6.667,22.85,1111122 
DISL,ioos:station:DISL:DISL:1,2011-08-03T08:30:00Z,30.2513,-88.0778,6.672,23.8,1111122 
DISL,ioos:station:DISL:DISL:1,2011-08-03T09:00:00Z,30.2513,-88.0778,6.673,22.85,1111122 
DISL,ioos:station:DISL:DISL:1,2011-08-03T09:30:00Z,30.2513,-88.0778,6.653,24.14,1111122 
DISL,ioos:station:DISL:DISL:1,2011-08-03T10:00:00Z,30.2513,-88.0778,6.663,23.33,1111122 
DISL,ioos:station:DISL:DISL:1,2011-08-03T10:30:00Z,30.2513,-88.0778,6.59,21.22,1111122 
DISL,ioos:station:DISL:DISL:1,2011-08-03T11:00:00Z,30.2513,-88.0778,6.615,20.78,1111122 
DISL,ioos:station:DISL:DISL:1,2011-08-03T11:30:00Z,30.2513,-88.0778,6.578,20.21,1111122 
DISL,ioos:station:DISL:DISL:1,2011-08-03T12:00:00Z,30.2513,-88.0778,6.529,18.22,1111122 
DISL,ioos:station:DISL:DISL:1,2011-08-03T12:30:00Z,30.2513,-88.0778,6.558,17.86,1111122 
DISL,ioos:station:DISL:DISL:1,2011-08-03T13:00:00Z,30.2513,-88.0778,6.57,17.48,1111122 
DISL,ioos:station:DISL:DISL:1,2011-08-03T13:30:00Z,30.2513,-88.0778,6.52,17.77,1111122 
DISL,ioos:station:DISL:DISL:1,2011-08-03T14:00:00Z,30.2513,-88.0778,6.522,17.66,1111122 
DISL,ioos:station:DISL:DISL:1,2011-08-03T14:30:00Z,30.2513,-88.0778,6.534,17.55,1111122 
DISL,ioos:station:DISL:DISL:1,2011-08-03T15:00:00Z,30.2513,-88.0778,6.565,16.96,1111122 
DISL,ioos:station:DISL:DISL:1,2011-08-03T15:30:00Z,30.2513,-88.0778,6.686,16.29,1111122 
DISL,ioos:station:DISL:DISL:1,2011-08-03T16:00:00Z,30.2513,-88.0778,6.613,16.56,1111122 
DISL,ioos:station:DISL:DISL:1,2011-08-03T16:30:00Z,30.2513,-88.0778,6.626,16.78,1111122 
DISL,ioos:station:DISL:DISL:1,2011-08-03T17:00:00Z,30.2513,-88.0778,6.581,19.18,1111122 
DISL,ioos:station:DISL:DISL:1,2011-08-03T17:30:00Z,30.2513,-88.0778,6.575,19.11,1111122 
DISL,ioos:station:DISL:DISL:1,2011-08-03T18:00:00Z,30.2513,-88.0778,6.599,20.19,1111122 
DISL,ioos:station:DISL:DISL:1,2011-08-03T18:30:00Z,30.2513,-88.0778,6.608,21.1,1111122 
DISL,ioos:station:DISL:DISL:1,2011-08-03T19:00:00Z,30.2513,-88.0778,6.625,21.18,1111122 
DISL,ioos:station:DISL:DISL:1,2011-08-03T19:30:00Z,30.2513,-88.0778,6.668,22.47,1111122 
DISL,ioos:station:DISL:DISL:1,2011-08-03T20:00:00Z,30.2513,-88.0778,6.647,23.83,1111122 
DISL,ioos:station:DISL:DISL:1,2011-08-03T20:30:00Z,30.2513,-88.0778,6.681,23.24,1111122 
DISL,ioos:station:DISL:DISL:1,2011-08-03T21:00:00Z,30.2513,-88.0778,6.663,23.19,1111122 
DISL,ioos:station:DISL:DISL:1,2011-08-03T21:30:00Z,30.2513,-88.0778,6.666,21.85,1111122 
DISL,ioos:station:DISL:DISL:1,2011-08-03T22:00:00Z,30.2513,-88.0778,6.614,20.06,1111122 
DISL,ioos:station:DISL:DISL:1,2011-08-03T22:30:00Z,30.2513,-88.0778,6.662,19.52,1111122 
DISL,ioos:station:DISL:DISL:1,2011-08-03T23:00:00Z,30.2513,-88.0778,6.6,19.67,1111122 
DISL,ioos:station:DISL:DISL:1,2011-08-03T23:30:00Z,30.2513,-88.0778,6.563,19.75,1111122 
DISL,ioos:station:DISL:DISL:1,2011-08-04T00:00:00Z,30.2513,-88.0778,6.59,19.87,1111122 
DISL,ioos:station:DISL:DISL:1,2011-08-04T00:30:00Z,30.2513,-88.0778,6.59,20.4,1111122 
DISL,ioos:station:DISL:DISL:1,2011-08-04T01:00:00Z,30.2513,-88.0778,6.641,21.44,1111122 
DISL,ioos:station:DISL:DISL:1,2011-08-04T01:30:00Z,30.2513,-88.0778,6.626,22.09,1111122 
DISL,ioos:station:DISL:DISL:1,2011-08-04T02:00:00Z,30.2513,-88.0778,6.667,22.21,1111122 
DISL,ioos:station:DISL:DISL:1,2011-08-04T02:30:00Z,30.2513,-88.0778,6.701,22.89,1111122 
DISL,ioos:station:DISL:DISL:1,2011-08-04T03:00:00Z,30.2513,-88.0778,6.696,24.6,1111122 
DISL,ioos:station:DISL:DISL:1,2011-08-04T03:30:00Z,30.2513,-88.0778,6.768,25.26,1111122 
DISL,ioos:station:DISL:DISL:1,2011-08-04T04:00:00Z,30.2513,-88.0778,6.75,25.93,1111122 
DISL,ioos:station:DISL:DISL:1,2011-08-04T04:30:00Z,30.2513,-88.0778,6.772,24.8,1111122 
DISL,ioos:station:DISL:DISL:1,2011-08-04T05:00:00Z,30.2513,-88.0778,6.759,25.44,1111122 
DISL,ioos:station:DISL:DISL:1,2011-08-04T05:30:00Z,30.2513,-88.0778,6.805,24.39,1111122 
DISL,ioos:station:DISL:DISL:1,2011-08-04T06:00:00Z,30.2513,-88.0778,6.833,25.06,1111122 
DISL,ioos:station:DISL:DISL:1,2011-08-04T06:30:00Z,30.2513,-88.0778,6.858,24.44,1111122 
DISL,ioos:station:DISL:DISL:1,2011-08-04T07:00:00Z,30.2513,-88.0778,6.839,25.38,1111122 
DISL,ioos:station:DISL:DISL:1,2011-08-04T07:30:00Z,30.2513,-88.0778,6.881,24.35,1111122 
DISL,ioos:station:DISL:DISL:1,2011-08-04T08:00:00Z,30.2513,-88.0778,6.94,22.06,1111122 
DISL,ioos:station:DISL:DISL:1,2011-08-04T08:30:00Z,30.2513,-88.0778,6.978,21.02,1111122 
DISL,ioos:station:DISL:DISL:1,2011-08-04T09:00:00Z,30.2513,-88.0778,6.982,20.67,1111122 
DISL,ioos:station:DISL:DISL:1,2011-08-04T09:30:00Z,30.2513,-88.0778,6.95,20.73,1111122 
DISL,ioos:station:DISL:DISL:1,2011-08-04T10:00:00Z,30.2513,-88.0778,6.933,20.63,1111122 
DISL,ioos:station:DISL:DISL:1,2011-08-04T10:30:00Z,30.2513,-88.0778,6.87,20.67,1111122 
DISL,ioos:station:DISL:DISL:1,2011-08-04T11:00:00Z,30.2513,-88.0778,6.731,20.65,1111122 
DISL,ioos:station:DISL:DISL:1,2011-08-04T11:30:00Z,30.2513,-88.0778,6.771,20.64,1111122 
DISL,ioos:station:DISL:DISL:1,2011-08-04T12:00:00Z,30.2513,-88.0778,6.736,20.65,1111122 
DISL,ioos:station:DISL:DISL:1,2011-08-04T12:30:00Z,30.2513,-88.0778,6.673,20.68,1111122 
DISL,ioos:station:DISL:DISL:1,2011-08-04T13:00:00Z,30.2513,-88.0778,6.605,20.69,1111122 
DISL,ioos:station:DISL:DISL:1,2011-08-04T13:30:00Z,30.2513,-88.0778,6.543,20.32,1111122 
DISL,ioos:station:DISL:DISL:1,2011-08-04T14:00:00Z,30.2513,-88.0778,6.52,20.7,1111122 
DISL,ioos:station:DISL:DISL:1,2011-08-04T14:30:00Z,30.2513,-88.0778,6.499,21.25,1111122 
DISL,ioos:station:DISL:DISL:1,2011-08-04T15:00:00Z,30.2513,-88.0778,6.465,21.66,1111122 
DISL,ioos:station:DISL:DISL:1,2011-08-04T15:30:00Z,30.2513,-88.0778,6.44,22.0,1111122 
DISL,ioos:station:DISL:DISL:1,2011-08-04T16:00:00Z,30.2513,-88.0778,6.429,22.09,1111122 
DISL,ioos:station:DISL:DISL:1,2011-08-04T16:30:00Z,30.2513,-88.0778,6.407,21.83,1111122 
DISL,ioos:station:DISL:DISL:1,2011-08-04T17:00:00Z,30.2513,-88.0778,6.331,19.97,1111122 
DISL,ioos:station:DISL:DISL:1,2011-08-04T17:30:00Z,30.2513,-88.0778,6.355,19.37,1111122 
DISL,ioos:station:DISL:DISL:1,2011-08-04T18:00:00Z,30.2513,-88.0778,6.247,18.58,1111122 
DISL,ioos:station:DISL:DISL:1,2011-08-04T18:30:00Z,30.2513,-88.0778,6.255,19.32,1111122 
DISL,ioos:station:DISL:DISL:1,2011-08-04T19:00:00Z,30.2513,-88.0778,6.225,19.99,1111122 
DISL,ioos:station:DISL:DISL:1,2011-08-04T19:30:00Z,30.2513,-88.0778,6.273,20.0,1111122 
DISL,ioos:station:DISL:DISL:1,2011-08-04T20:00:00Z,30.2513,-88.0778,6.242,20.37,1111122 
DISL,ioos:station:DISL:DISL:1,2011-08-04T20:30:00Z,30.2513,-88.0778,6.14,20.48,1111122 
DISL,ioos:station:DISL:DISL:1,2011-08-04T21:00:00Z,30.2513,-88.0778,6.266,20.91,1111122 
DISL,ioos:station:DISL:DISL:1,2011-08-04T21:30:00Z,30.2513,-88.0778,6.23,22.03,1111122 
DISL,ioos:station:DISL:DISL:1,2011-08-04T22:00:00Z,30.2513,-88.0778,6.299,22.11,1111122 
DISL,ioos:station:DISL:DISL:1,2011-08-04T22:30:00Z,30.2513,-88.0778,6.32,21.51,1111122 
DISL,ioos:station:DISL:DISL:1,2011-08-04T23:00:00Z,30.2513,-88.0778,6.412,21.22,1111122 
DISL,ioos:station:DISL:DISL:1,2011-08-04T23:30:00Z,30.2513,-88.0778,6.427,21.04,1111122 
DISL,ioos:station:DISL:DISL:1,2011-08-05T00:00:00Z,30.2513,-88.0778,6.392,20.92,1111122 
DISL,ioos:station:DISL:DISL:1,2011-08-05T00:30:00Z,30.2513,-88.0778,6.443,20.84,1111122 
DISL,ioos:station:DISL:DISL:1,2011-08-05T01:00:00Z,30.2513,-88.0778,6.484,20.86,1111122 
DISL,ioos:station:DISL:DISL:1,2011-08-05T01:30:00Z,30.2513,-88.0778,6.676,20.91,1111122 
DISL,ioos:station:DISL:DISL:1,2011-08-05T02:00:00Z,30.2513,-88.0778,6.628,20.95,1111122 
DISL,ioos:station:DISL:DISL:1,2011-08-05T02:30:00Z,30.2513,-88.0778,6.629,21.57,1111122 
DISL,ioos:station:DISL:DISL:1,2011-08-05T03:00:00Z,30.2513,-88.0778,6.692,21.97,1111122 
DISL,ioos:station:DISL:DISL:1,2011-08-05T03:30:00Z,30.2513,-88.0778,7.02,22.23,1111122 
DISL,ioos:station:DISL:DISL:1,2011-08-05T04:00:00Z,30.2513,-88.0778,6.839,22.28,1111122 
DISL,ioos:station:DISL:DISL:1,2011-08-05T04:30:00Z,30.2513,-88.0778,7.09,21.44,1111122 
DISL,ioos:station:DISL:DISL:1,2011-08-05T05:00:00Z,30.2513,-88.0778,7.22,21.18,1111122 
DISL,ioos:station:DISL:DISL:1,2011-08-05T05:30:00Z,30.2513,-88.0778,7.13,21.19,1111122 
DISL,ioos:station:DISL:DISL:1,2011-08-05T06:00:00Z,30.2513,-88.0778,6.755,21.17,1111122 
DISL,ioos:station:DISL:DISL:1,2011-08-05T06:30:00Z,30.2513,-88.0778,6.583,21.18,1111122 
DISL,ioos:station:DISL:DISL:1,2011-08-05T07:00:00Z,30.2513,-88.0778,6.59,20.9,1111122 
DISL,ioos:station:DISL:DISL:1,2011-08-05T07:30:00Z,30.2513,-88.0778,6.44,21.98,1111122 
DISL,ioos:station:DISL:DISL:1,2011-08-05T08:00:00Z,30.2513,-88.0778,6.373,22.13,1111122 
DISL,ioos:station:DISL:DISL:1,2011-08-05T08:30:00Z,30.2513,-88.0778,6.502,22.0,1111122 
DISL,ioos:station:DISL:DISL:1,2011-08-05T09:00:00Z,30.2513,-88.0778,6.594,22.91,1111122 
DISL,ioos:station:DISL:DISL:1,2011-08-05T09:30:00Z,30.2513,-88.0778,6.744,22.77,1111122 
DISL,ioos:station:DISL:DISL:1,2011-08-05T10:00:00Z,30.2513,-88.0778,6.855,22.0,1111122 
DISL,ioos:station:DISL:DISL:1,2011-08-05T10:30:00Z,30.2513,-88.0778,6.928,21.54,1111122 
DISL,ioos:station:DISL:DISL:1,2011-08-05T11:00:00Z,30.2513,-88.0778,6.999,21.25,1111122 
DISL,ioos:station:DISL:DISL:1,2011-08-05T11:30:00Z,30.2513,-88.0778,6.969,21.13,1111122 
DISL,ioos:station:DISL:DISL:1,2011-08-05T12:00:00Z,30.2513,-88.0778,6.777,20.99,1111122 
DISL,ioos:station:DISL:DISL:1,2011-08-05T12:30:00Z,30.2513,-88.0778,6.693,20.99,1111122 
DISL,ioos:station:DISL:DISL:1,2011-08-05T13:00:00Z,30.2513,-88.0778,6.656,21.05,1111122 
DISL,ioos:station:DISL:DISL:1,2011-08-05T13:30:00Z,30.2513,-88.0778,6.575,21.08,1111122 
DISL,ioos:station:DISL:DISL:1,2011-08-05T14:00:00Z,30.2513,-88.0778,6.572,20.67,1111122 
DISL,ioos:station:DISL:DISL:1,2011-08-05T14:30:00Z,30.2513,-88.0778,6.509,20.64,1111122 
DISL,ioos:station:DISL:DISL:1,2011-08-05T15:00:00Z,30.2513,-88.0778,6.52,21.25,1111122 
DISL,ioos:station:DISL:DISL:1,2011-08-05T15:30:00Z,30.2513,-88.0778,6.412,21.58,1111122 
DISL,ioos:station:DISL:DISL:1,2011-08-05T16:00:00Z,30.2513,-88.0778,6.355,21.81,1111122 
DISL,ioos:station:DISL:DISL:1,2011-08-05T16:30:00Z,30.2513,-88.0778,6.201,22.02,1111122 
DISL,ioos:station:DISL:DISL:1,2011-08-05T17:00:00Z,30.2513,-88.0778,6.263,22.31,1111122 
DISL,ioos:station:DISL:DISL:1,2011-08-05T17:30:00Z,30.2513,-88.0778,6.084,22.25,1111122 
DISL,ioos:station:DISL:DISL:1,2011-08-05T18:00:00Z,30.2513,-88.0778,6.1,21.9,1111122 
DISL,ioos:station:DISL:DISL:1,2011-08-05T18:30:00Z,30.2513,-88.0778,6.003,22.21,1111122 
DISL,ioos:station:DISL:DISL:1,2011-08-05T19:00:00Z,30.2513,-88.0778,5.977,22.17,1111122 
DISL,ioos:station:DISL:DISL:1,2011-08-05T19:30:00Z,30.2513,-88.0778,5.956,22.03,1111122 
DISL,ioos:station:DISL:DISL:1,2011-08-05T20:00:00Z,30.2513,-88.0778,5.909,21.79,1111122 
DISL,ioos:station:DISL:DISL:1,2011-08-05T20:30:00Z,30.2513,-88.0778,5.976,21.68,1111122 
DISL,ioos:station:DISL:DISL:1,2011-08-05T21:00:00Z,30.2513,-88.0778,6.026,21.98,1111122 
DISL,ioos:station:DISL:DISL:1,2011-08-05T21:30:00Z,30.2513,-88.0778,6.042,21.88,1111122 
DISL,ioos:station:DISL:DISL:1,2011-08-05T22:00:00Z,30.2513,-88.0778,6.011,21.81,1111122 
DISL,ioos:station:DISL:DISL:1,2011-08-05T22:30:00Z,30.2513,-88.0778,6.093,22.29,1111122 
DISL,ioos:station:DISL:DISL:1,2011-08-05T23:00:00Z,30.2513,-88.0778,6.102,22.03,1111122 
DISL,ioos:station:DISL:DISL:1,2011-08-05T23:30:00Z,30.2513,-88.0778,6.214,21.93,1111122 
DISL,ioos:station:DISL:DISL:1,2011-08-06T00:00:00Z,30.2513,-88.0778,6.245,22.02,1111122 
DISL,ioos:station:DISL:DISL:1,2011-08-06T00:30:00Z,30.2513,-88.0778,6.344,21.97,1111122 
DISL,ioos:station:DISL:DISL:1,2011-08-06T01:00:00Z,30.2513,-88.0778,6.376,21.86,1111122 
DISL,ioos:station:DISL:DISL:1,2011-08-06T01:30:00Z,30.2513,-88.0778,6.368,21.7,1111122 
DISL,ioos:station:DISL:DISL:1,2011-08-06T02:00:00Z,30.2513,-88.0778,6.481,21.61,1111122 
DISL,ioos:station:DISL:DISL:1,2011-08-06T02:30:00Z,30.2513,-88.0778,6.59,19.87,1111122 
DISL,ioos:station:DISL:DISL:1,2011-08-06T03:00:00Z,30.2513,-88.0778,6.659,23.34,1111122 
DISL,ioos:station:DISL:DISL:1,2011-08-06T03:30:00Z,30.2513,-88.0778,6.701,24.12,1111122 
DISL,ioos:station:DISL:DISL:1,2011-08-06T04:00:00Z,30.2513,-88.0778,6.828,24.45,1111122 
DISL,ioos:station:DISL:DISL:1,2011-08-06T04:30:00Z,30.2513,-88.0778,6.822,26.98,1111122 
DISL,ioos:station:DISL:DISL:1,2011-08-06T05:00:00Z,30.2513,-88.0778,6.947,27.14,1111122 
DISL,ioos:station:DISL:DISL:1,2011-08-06T05:30:00Z,30.2513,-88.0778,6.949,25.3,1111122 
DISL,ioos:station:DISL:DISL:1,2011-08-06T06:00:00Z,30.2513,-88.0778,7.07,27.05,1111122 
DISL,ioos:station:DISL:DISL:1,2011-08-06T06:30:00Z,30.2513,-88.0778,7.11,26.91,1111122 
DISL,ioos:station:DISL:DISL:1,2011-08-06T07:00:00Z,30.2513,-88.0778,7.18,26.71,1111122 
DISL,ioos:station:DISL:DISL:1,2011-08-06T07:30:00Z,30.2513,-88.0778,7.21,25.69,1111122 
DISL,ioos:station:DISL:DISL:1,2011-08-06T08:00:00Z,30.2513,-88.0778,7.29,25.16,1111122 
DISL,ioos:station:DISL:DISL:1,2011-08-06T08:30:00Z,30.2513,-88.0778,7.36,24.64,1111122 
DISL,ioos:station:DISL:DISL:1,2011-08-06T09:00:00Z,30.2513,-88.0778,7.29,21.07,1111122 
DISL,ioos:station:DISL:DISL:1,2011-08-06T09:30:00Z,30.2513,-88.0778,7.37,24.02,1111122 
DISL,ioos:station:DISL:DISL:1,2011-08-06T10:00:00Z,30.2513,-88.0778,7.33,24.5,1111122 
DISL,ioos:station:DISL:DISL:1,2011-08-06T10:30:00Z,30.2513,-88.0778,7.29,22.61,1111122 
DISL,ioos:station:DISL:DISL:1,2011-08-06T11:00:00Z,30.2513,-88.0778,7.37,19.99,1111122 
DISL,ioos:station:DISL:DISL:1,2011-08-06T11:30:00Z,30.2513,-88.0778,7.27,19.94,1111122 
DISL,ioos:station:DISL:DISL:1,2011-08-06T12:00:00Z,30.2513,-88.0778,7.19,19.37,1111122 
DISL,ioos:station:DISL:DISL:1,2011-08-06T12:30:00Z,30.2513,-88.0778,7.11,20.41,1111122 
DISL,ioos:station:DISL:DISL:1,2011-08-06T13:00:00Z,30.2513,-88.0778,7.03,19.56,1111122 
DISL,ioos:station:DISL:DISL:1,2011-08-06T13:30:00Z,30.2513,-88.0778,6.999,20.11,1111122 
DISL,ioos:station:DISL:DISL:1,2011-08-06T14:00:00Z,30.2513,-88.0778,6.878,21.91,1111122 